Location: West Cummington
(42.4920°N, 72.9680°W)
Time: 05:56:59
(UTC-05:00)

Cosmos 2221 - Visible Passes

Search period start: 17 January 2017 00:00
Search period end: 27 January 2017 00:00
Orbit: 593 x 618 km, 82.5° (Epoch: 16 January)

Date Brightness Start Highest point End Pass type
(mag) Time Alt. Az. Time Alt. Az. Time Alt. Az.
17 Jan 5.1 04:56:13 10° SE 04:59:26 21° E 05:02:39 10° NE visible
17 Jan 3.2 06:32:51 10° SW 06:36:47 33° WNW 06:40:43 10° N visible
17 Jan 5.9 18:18:26 10° WNW 18:19:49 11° W 18:21:11 10° WSW visible
18 Jan 4.2 05:08:29 10° SSE 05:12:23 34° E 05:16:18 10° NNE visible
18 Jan 3.8 06:46:48 10° WSW 06:50:03 20° WNW 06:53:19 10° NNW visible
19 Jan 3.1 05:21:10 10° S 05:25:25 58° E 05:29:40 10° NNE visible
20 Jan 2.4 05:34:10 10° S 05:38:31 82° W 05:42:50 10° N visible
20 Jan 4.9 17:18:22 10° NNW 17:21:58 27° W 17:25:34 10° SSW visible
21 Jan 5.5 04:12:08 10° ESE 04:14:31 15° E 04:16:54 10° NE visible
21 Jan 2.7 05:47:29 10° SSW 05:51:40 47° WNW 05:55:50 10° N visible
21 Jan 5.5 17:32:13 10° NW 17:34:54 16° W 17:37:34 10° SW visible
22 Jan 4.8 04:23:57 10° SE 04:27:26 24° E 04:30:53 10° NE visible
22 Jan 3.3 06:01:08 10° SW 06:04:53 28° WNW 06:08:38 10° NNW visible
23 Jan 3.8 04:36:23 10° SSE 04:40:25 40° E 04:44:26 10° NNE visible
23 Jan 3.9 06:15:14 10° WSW 06:18:10 18° WNW 06:21:06 10° NNW visible
24 Jan 2.7 04:52:49 58° SSE 04:53:27 69° E 04:57:44 10° NNE visible
24 Jan 4.4 06:30:27 10° W 06:31:32 11° WNW 06:32:37 10° NW visible
25 Jan 3.7 05:08:36 30° N 05:08:36 30° N 05:10:52 10° N visible
26 Jan 4.5 05:22:54 15° NNW 05:22:54 15° NNW 05:23:47 10° N visible
